ARG1009 SACO-YMML

Flight info

Callsign ARG1009
Flight time N/A
Altitude 30000
Route SIMES1G SIMES UT700 TRE/N0492F320 UT700 ORIKA UT109 GAL UP664 NAS/N0484F330 DCT 57S075W 62S082W 66S090W/N0482F340 70S102W 72S118W 73S138W 72S157W 70S173W/N0476F360 66S174E 62S165E 57S159E 53S154E 47S150E/N0466F380 DCT TASUM H111 LT H215 ONAGI
Aircraft B77W/H-SDE1E2E3FGHIJ2J3J4J5M1RWXY/LB1D1

Departure

Time 2026-05-07 18:19
Airport Ingeniero Aeronáutico Ambrosio L.V. Taravella International Airport (SACO)

Arrival

Time N/A
Airport Melbourne Airport (YMML)
Time Latitude Longitude Altitude Speed Heading
2026-05-07 18:02 -31.31486 -64.21165 1617 ft 0 kts 262°
2026-05-07 18:10 -31.31483 -64.21148 1644 ft 3 kts 257°
2026-05-07 18:11 -31.31479 -64.21125 1647 ft 3 kts 252°
2026-05-07 18:11 -31.31476 -64.21112 1649 ft 2 kts 276°
2026-05-07 18:11 -31.31480 -64.21112 1651 ft 3 kts 256°
2026-05-07 18:11 -31.31480 -64.21095 1617 ft 3 kts 294°
2026-05-07 18:12 -31.31490 -64.21080 1627 ft 3 kts 346°
2026-05-07 18:12 -31.31509 -64.21079 1627 ft 3 kts
2026-05-07 18:12 -31.31529 -64.21081 1623 ft 2 kts
2026-05-07 18:12 -31.31531 -64.21081 1622 ft 0 kts
2026-05-07 18:14 -31.31516 -64.21077 1627 ft 7 kts 16°
2026-05-07 18:14 -31.31469 -64.20986 1619 ft 20 kts 85°
2026-05-07 18:14 -31.31420 -64.20842 1624 ft 20 kts 24°
2026-05-07 18:15 -31.31279 -64.20832 1626 ft 20 kts 360°
2026-05-07 18:15 -31.31137 -64.20834 1624 ft 20 kts
2026-05-07 18:15 -31.30992 -64.20834 1623 ft 22 kts 359°
2026-05-07 18:15 -31.30829 -64.20838 1621 ft 25 kts 359°
2026-05-07 18:16 -31.30647 -64.20840 1626 ft 27 kts 359°
2026-05-07 18:16 -31.30450 -64.20843 1622 ft 29 kts 358°
2026-05-07 18:16 -31.30244 -64.20845 1626 ft 30 kts 358°
2026-05-07 18:16 -31.30036 -64.20850 1625 ft 30 kts 359°
2026-05-07 18:17 -31.29966 -64.20852 1625 ft 30 kts 359°
2026-05-07 18:17 -31.29622 -64.20866 1626 ft 1 kts 119°
2026-05-07 18:18 -31.29639 -64.20858 1626 ft 5 kts 166°
2026-05-07 18:18 -31.29657 -64.20857 1622 ft 2 kts 179°
2026-05-07 18:18 -31.29775 -64.20856 1622 ft 44 kts 179°
2026-05-07 18:18 -31.30357 -64.20847 1624 ft 123 kts 180°
2026-05-07 18:19 -31.31449 -64.20816 1730 ft 178 kts 181°
2026-05-07 18:19 -31.32712 -64.20713 2462 ft 190 kts 175°
2026-05-07 18:19 -31.33974 -64.20144 3276 ft 207 kts 148°
2026-05-07 18:19 -31.35112 -64.19014 3874 ft 218 kts 143°
2026-05-07 18:20 -31.36260 -64.17800 4241 ft 226 kts 143°
2026-05-07 18:20 -31.37435 -64.16559 4741 ft 229 kts 143°
2026-05-07 18:20 -31.38610 -64.15320 5243 ft 231 kts 143°
2026-05-07 18:20 -31.39813 -64.14056 5717 ft 234 kts 143°
2026-05-07 18:21 -31.41028 -64.12782 6228 ft 236 kts 143°
2026-05-07 18:21 -31.42326 -64.11594 6509 ft 240 kts 161°
2026-05-07 18:21 -31.43951 -64.11158 6677 ft 244 kts 176°
2026-05-07 18:21 -31.45670 -64.10882 6985 ft 257 kts 175°
2026-05-07 18:22 -31.47463 -64.10565 7435 ft 264 kts 176°
2026-05-07 18:22 -31.48670 -64.10345 7768 ft 267 kts 176°
2026-05-07 18:22 -31.49293 -64.10228 7985 ft 268 kts 176°
2026-05-07 18:23 -31.61232 -64.07884 10693 ft 324 kts 176°
2026-05-07 18:24 -31.63526 -64.07422 10913 ft 343 kts 176°
2026-05-07 18:24 -31.65914 -64.06932 11379 ft 352 kts 175°
2026-05-07 18:24 -31.68353 -64.06427 11985 ft 358 kts 175°
2026-05-07 18:24 -31.69980 -64.06089 12467 ft 360 kts 175°